sat.trackr.live / text

‹ back to catalog

KUIPER-00244

NORAD 68583 · 2026-072L

PAYLOAD ACTIVE UNKNOWN

§ Identity

Operator
Country
US
Launch date
2026-04-04
Launch site
AFETR
Launch vehicle
Mass (kg)
RCS (m²)

External: N2YO · Heavens-Above · Gunter

§ Orbital elements

Epoch: 2026-05-25T04:00:03.998880Z

Period
93.83 min
Inclination
51.8776°
Eccentricity
0.0003501
Mean motion
15.34764360 rev/d
Perigee alt
459.2 km
Apogee alt
464.0 km
Semi-major
6,839.8 km
B*
7.0833e-4
RAAN
288.0016°
Arg perigee
289.0858°
Mean anomaly
26.1217°
Rev number
573

§ Raw data

KUIPER-002441 68583U 26072L   26145.16671295  .00023935  00000+0  70833-3 0  99972 68583  51.8776 288.0016 0003501 289.0858  26.1217 15.34764360  5733

JSON: /api/v1/satellites/68583 · /tle

For live sub-satellite position, see the globe view (requires WebGL).

§ Visibility from observer

Set your observer location to see the next 7 days of passes ≥ 10°. The values pass through the URL so the page stays shareable.

No JS? Fill the form by hand. The geolocation button needs JavaScript.